Location: Aufkirchen
(47.9603°N, 11.3653°E)
Time: 22:05:07
(UTC+02:00)

Altair - Pass Details

Date: 30 July 2021
Orbit: 1501 x 1682 km, 47.2° (Epoch: 22 September)

Event Time Altitude Azimuth Distance (km) Brightness Sun altitude
Exits shadow 04:48:39 - 247° (WSW) 3,847 9.0 -9.0°
Reaches altitude 10° 04:49:05 10° 246° (WSW) 3,709 8.9 -9.0°
Maximum altitude 04:58:22 76° 163° (SSE) 1,549 7.5 -7.8°
Drops below altitude 10° 05:07:31 10° 80° (E) 3,654 10.6 -6.6°
Sets 05:10:31 0° 79° (E) 4,639 11.4 -6.2°
